Wind_Speed
41 40 40 39 40 40 34 29 25 22 26 31 31 25 19 25 24 22 17 15 19 20 22 20 18 18 17 16 16 14 11 10 10 10 9 8 8 7 6 4 3 3 2 2 2 3 3 4 4
36 42 43 44 46 44 36 31 28 26 32 35 34 27 23 23 29 20 20 21 22 19 20 21 20 20 19 17 15 15 13 11 11 10 9 9 8 7 7 6 5 4 5 4 4 4 5 5 5
36 36 43 48 49 46 39 30 24 28 34 37 31 33 31 31 25 22 20 24 24 17 24 22 22 20 20 20 18 16 15 13 12 11 10 10 9 9 8 8 7 7 6 6 5 5 6 6 6
40 41 42 44 48 48 42 43 26 32 43 38 33 36 36 32 23 23 23 26 25 21 24 23 21 20 20 20 20 17 16 15 14 12 12 12 12 10 10 8 7 7 7 6 5 6 7 9 9
41 44 47 48 43 40 46 49 50 48 44 41 36 37 37 34 32 28 25 23 25 28 27 23 21 19 20 20 19 20 18 17 16 15 13 13 12 11 10 9 8 8 8 7 7 8 10 11 13
47 47 49 47 47 43 41 45 51 54 51 42 41 40 35 40 38 34 30 29 28 27 26 24 22 21 20 21 21 20 20 19 17 15 15 14 13 11 10 9 9 9 8 9 9 10 14 15 16
49 52 51 50 47 46 45 45 52 50 54 48 49 46 38 45 38 37 33 32 31 30 29 28 27 21 21 21 22 22 21 19 17 16 16 13 12 10 9 8 9 9 9 10 12 15 17 18 20
56 57 58 54 52 51 48 48 54 51 52 49 56 50 47 54 39 40 38 35 33 31 28 26 22 23 21 20 20 21 20 19 17 16 15 12 10 10 9 9 10 10 11 13 16 19 21 22 23
63 65 65 58 55 57 54 54 48 58 51 51 54 59 52 59 43 42 42 39 35 31 32 30 28 25 21 20 22 20 19 19 18 15 14 13 12 12 11 12 12 14 16 18 21 22 24 26 26
68 71 67 62 64 67 62 55 59 61 53 52 54 60 56 64 47 45 45 44 43 32 34 34 30 30 25 24 21 20 20 19 18 16 15 14 15 15 14 16 18 19 22 23 24 26 28 29 29
63 69 66 70 74 73 73 72 67 67 57 56 54 55 57 66 51 48 48 49 47 42 39 38 32 29 30 25 23 23 23 22 20 19 18 18 18 18 19 20 22 23 25 25 27 29 32 32 34
45 56 60 70 80 81 80 80 77 73 63 62 59 55 57 66 57 53 52 52 49 46 40 40 36 34 34 32 29 26 26 25 22 24 23 23 22 23 23 24 25 26 28 28 30 33 35 36 37
26 29 49 66 77 81 86 85 84 76 70 67 65 59 61 70 67 60 56 55 53 51 48 42 43 38 35 34 32 32 31 30 29 28 27 27 27 26 27 27 27 28 29 31 32 37 37 38 41
30 30 33 41 63 79 83 88 89 77 75 69 67 63 65 67 66 62 57 57 56 55 52 46 43 42 35 35 34 34 34 33 33 31 30 30 29 28 27 27 28 30 32 34 36 39 41 42 43
32 35 36 40 48 55 76 86 88 75 78 76 69 67 64 62 63 65 61 61 60 58 52 49 45 41 37 34 35 36 38 38 36 35 33 31 29 29 28 29 32 33 35 38 40 41 44 46 48
34 36 39 39 32 39 50 84 85 79 76 78 75 72 69 66 64 66 66 65 64 59 54 52 50 47 43 39 37 36 36 39 39 37 36 32 31 32 31 33 34 36 39 40 42 44 47 49 49
31 34 28 21 22 33 32 58 81 80 76 75 76 68 68 67 67 66 66 68 66 59 55 54 51 45 42 40 39 37 35 36 38 35 33 32 31 31 34 36 38 40 42 45 46 48 49 50 52
23 23 23 23 21 28 33 31 52 80 66 75 76 71 68 67 68 65 66 68 67 61 57 54 50 46 44 42 39 37 33 32 34 35 32 31 30 33 36 38 41 45 46 47 47 48 51 55 55
32 31 29 28 26 29 29 35 28 35 69 76 71 75 70 69 69 66 66 66 67 63 58 57 52 48 44 40 39 35 34 34 36 36 33 31 33 36 40 42 45 47 47 47 48 51 53 54 52
32 32 29 27 30 31 28 33 32 36 48 68 75 78 72 70 69 69 65 65 68 61 61 59 55 51 45 44 42 39 37 38 39 39 38 38 38 39 42 44 47 47 46 46 48 51 47 46 39
30 28 27 29 28 35 38 35 34 35 51 79 80 80 75 71 69 69 64 63 65 63 68 63 60 52 50 48 46 44 43 44 45 46 46 44 42 45 47 48 45 44 46 45 46 50 56 48 47
31 28 28 31 32 33 26 40 34 27 36 65 77 78 77 71 69 68 65 64 61 64 59 65 61 57 53 50 49 48 48 49 49 50 47 46 48 45 44 43 41 41 44 49 49 46 46 31 32
31 29 32 32 35 37 37 40 31 23 28 50 73 77 73 68 66 67 65 63 58 71 66 68 62 59 56 54 51 48 52 55 53 54 51 46 40 41 38 38 41 44 42 40 34 31 20 14 6
29 31 32 34 35 40 31 32 33 29 28 35 63 74 72 68 63 63 65 61 61 67 72 70 65 62 55 57 42 45 47 48 45 37 34 34 32 29 26 26 26 31 27 13 9 14 13 12 9
27 27 31 36 38 30 17 28 25 23 32 30 38 71 72 66 62 61 64 62 62 64 70 66 64 59 52 43 46 45 45 44 38 31 31 26 22 22 20 17 12 22 17 13 11 12 10 12 17
28 29 37 40 31 27 21 29 22 17 26 32 38 68 71 66 61 63 62 59 62 67 67 69 62 56 51 50 47 47 46 38 30 29 23 17 16 13 15 16 17 12 10 10 8 6 13 17 23
33 36 30 32 30 32 24 28 28 28 28 32 38 66 71 68 67 64 59 68 64 69 67 65 59 55 51 44 46 46 39 31 28 24 16 14 13 12 13 10 10 7 4 7 11 15 19 21 24
22 22 25 31 37 35 35 34 33 19 27 36 31 69 75 72 67 66 71 72 71 73 67 66 61 52 45 44 41 37 34 27 25 19 16 15 13 13 12 11 12 13 14 15 15 16 17 20 23
16 21 24 26 31 28 26 24 35 37 36 30 33 65 76 74 66 67 74 69 42 65 69 64 59 50 49 40 38 37 29 25 21 18 18 16 15 15 13 15 15 18 17 17 18 17 20 23 24
21 18 20 23 18 28 26 30 31 37 40 38 37 66 77 71 66 72 71 66 39 78 68 61 53 47 39 37 37 34 28 23 22 20 19 17 15 15 17 19 20 20 21 20 20 20 22 23 25
Wind_Direction
238 241 243 243 241 239 241 240 240 239 247 237 237 233 216 219 220 218 213 214 212 203 203 204 199 203 205 188 190 176 190 194 202 204 207 213 215 218 228 230 229 225 247 278 316 332 348 353 359
247 241 240 241 243 243 238 241 239 242 243 242 237 233 229 231 232 230 229 216 216 216 214 202 201 201 209 202 200 187 194 202 210 203 206 212 213 218 228 231 228 225 234 248 275 298 317 336 342
256 248 241 240 241 241 242 236 251 242 237 241 240 237 230 231 233 229 231 225 215 212 234 202 200 203 209 209 206 199 201 207 211 214 215 219 219 223 227 228 225 225 231 248 269 309 318 309 312
257 256 251 246 244 242 240 236 216 232 238 239 236 237 237 233 221 226 233 229 219 215 216 215 195 203 208 210 209 202 204 208 214 214 219 224 221 222 227 230 226 232 247 262 287 289 282 293 296
260 258 255 253 248 243 240 238 227 239 237 236 235 236 237 232 227 229 227 227 217 212 213 208 200 200 205 212 209 208 206 210 214 214 221 226 228 231 234 237 239 244 252 266 271 274 280 283 292
264 263 260 258 257 250 244 242 237 241 238 233 238 232 234 234 226 227 229 231 224 207 201 198 208 198 206 211 212 209 209 212 214 216 221 225 230 237 244 248 250 250 255 263 268 274 277 285 293
258 258 259 261 258 255 249 245 247 235 240 229 232 234 231 239 226 226 226 227 229 216 204 198 193 199 201 212 211 209 209 213 216 221 227 230 236 242 247 244 247 250 257 267 274 278 278 283 285
256 252 254 255 255 256 250 247 247 241 237 232 230 231 225 235 222 223 221 221 219 214 209 212 203 212 206 206 212 214 213 215 218 223 229 231 237 243 244 245 250 261 271 274 275 276 276 278 284
258 252 254 254 251 250 248 244 242 242 236 233 229 230 226 236 221 220 219 217 217 221 232 222 225 225 211 210 208 213 217 217 218 220 229 233 241 247 246 256 262 269 273 273 274 275 275 279 283
255 254 254 248 243 241 241 242 238 243 235 235 230 229 223 238 227 221 219 218 219 218 223 223 205 202 208 210 213 215 222 225 224 227 233 241 246 250 258 265 271 273 275 277 277 276 278 280 285
258 255 250 243 237 237 235 234 237 239 233 232 231 228 224 234 227 220 219 220 218 222 223 222 204 195 206 205 211 212 224 228 229 235 241 247 253 257 262 265 270 273 276 279 277 279 281 283 287
255 254 246 240 234 235 231 232 233 235 230 228 227 225 221 228 226 220 217 219 220 221 218 217 210 206 206 210 214 221 222 232 237 246 255 254 257 258 260 264 268 274 278 278 280 281 282 285 287
273 265 246 238 233 235 234 231 230 229 231 226 226 221 222 224 221 220 215 216 218 221 222 223 232 212 215 218 222 226 230 235 239 243 247 255 259 260 263 266 269 273 276 279 281 282 282 286 288
271 268 261 255 247 233 236 234 230 225 230 228 227 224 224 224 220 221 216 215 217 221 222 225 228 230 222 225 228 233 236 238 243 248 254 259 261 262 264 268 273 276 281 284 282 283 285 290 290
273 272 270 280 260 248 239 236 230 224 228 227 223 222 222 226 220 219 215 212 217 218 220 224 225 229 229 233 237 242 241 244 247 250 255 259 259 263 269 274 276 282 285 284 285 289 291 291 291
269 271 278 291 263 252 248 235 228 222 228 229 222 220 218 218 219 219 217 211 215 218 218 223 226 231 237 241 242 243 245 245 248 252 256 256 262 271 276 277 281 284 283 285 287 291 291 291 293
269 272 280 285 266 258 262 241 230 222 225 227 225 219 219 217 219 216 217 215 218 215 217 220 225 231 235 238 242 245 243 244 247 251 254 259 269 278 283 285 285 285 287 289 292 293 294 297 298
264 264 271 271 259 259 267 262 238 226 225 226 222 219 217 215 217 217 216 216 216 213 216 218 225 229 231 235 239 241 243 246 249 253 257 266 279 286 289 290 290 288 290 290 292 296 299 299 303
273 270 266 250 246 262 262 255 245 236 225 221 221 220 214 214 213 215 214 214 215 214 211 218 223 227 229 236 236 240 244 251 251 256 261 273 279 285 289 293 290 288 287 291 295 294 293 299 302
281 273 268 259 259 254 265 260 255 237 222 218 218 215 211 212 212 214 213 211 215 212 209 215 219 223 227 231 234 241 251 255 256 258 263 268 275 284 288 290 286 284 289 291 296 294 293 310 290
284 271 267 255 251 253 253 250 255 252 237 219 216 215 210 211 209 211 214 212 212 208 210 213 215 222 225 229 235 242 250 254 256 256 260 267 276 281 288 291 289 291 293 298 289 298 304 301 305
275 273 265 264 255 257 250 269 256 252 240 228 219 214 210 211 207 207 210 212 210 207 210 215 221 217 222 228 234 242 249 253 255 256 261 272 278 283 286 288 296 297 298 297 298 304 300 294 282
275 267 265 260 262 266 261 259 261 244 245 232 218 213 210 211 210 206 206 211 206 206 210 216 216 219 220 230 233 240 248 252 257 255 267 280 279 279 287 294 298 299 307 303 305 304 301 259 79
277 269 269 263 261 264 279 259 255 235 224 233 221 212 208 208 209 205 205 207 206 206 210 216 218 221 224 227 234 246 249 257 264 259 273 272 279 285 304 311 321 309 308 309 13 39 36 16 327
277 271 269 269 263 271 269 254 271 248 225 222 227 206 206 206 206 200 203 203 205 206 207 210 217 224 230 239 243 249 252 259 263 268 269 277 277 282 306 335 323 333 322 344 27 31 344 305 293
269 262 258 263 267 276 270 250 269 247 214 221 220 203 203 204 203 200 200 202 208 207 205 210 212 217 223 231 239 245 253 255 261 261 266 265 261 306 321 330 329 4 27 23 18 301 281 278 285
277 263 267 261 265 253 242 258 231 224 222 229 220 197 197 199 201 194 195 203 198 200 203 206 207 212 221 228 239 243 248 252 253 254 253 247 264 288 305 329 332 346 332 289 272 273 289 292 289
282 264 256 251 258 256 261 247 248 241 238 228 224 199 191 196 198 188 196 207 201 194 198 201 207 211 220 226 236 240 244 246 246 242 235 246 264 281 297 298 300 297 290 283 292 296 298 298 297
276 263 272 261 258 259 258 245 231 221 219 228 224 196 190 194 193 186 199 209 235 193 195 202 205 208 219 226 233 236 240 239 230 226 233 248 261 274 291 290 275 286 287 286 290 299 307 306 301
268 263 259 254 263 259 251 231 233 219 209 212 217 195 188 192 186 188 195 202 202 180 192 199 199 210 216 224 230 235 235 230 221 227 236 248 264 279 287 289 293 291 293 294 295 297 299 298 294
Height
5865 5867 5869 5872 5875 5874 5878 5884 5888 5891 5891 5891 5892 5895 5898 5897 5896 5898 5898 5900 5901 5901 5902 5903 5904 5907 5908 5907 5909 5910 5913 5913 5915 5915 5916 5917 5917 5917 5917 5916 5916 5917 5917 5916 5916 5916 5915 5914 5913
5858 5861 5862 5863 5865 5868 5876 5882 5883 5887 5886 5884 5887 5892 5895 5896 5891 5895 5897 5897 5899 5899 5900 5900 5902 5904 5906 5907 5908 5908 5911 5913 5914 5914 5915 5916 5915 5916 5915 5915 5915 5915 5915 5915 5915 5914 5914 5914 5914
5850 5852 5854 5854 5856 5860 5872 5878 5883 5882 5880 5880 5885 5887 5889 5889 5890 5892 5894 5894 5895 5896 5899 5899 5900 5901 5904 5904 5905 5907 5910 5911 5913 5913 5913 5914 5914 5914 5914 5914 5914 5914 5914 5914 5914 5914 5914 5913 5912
5844 5843 5845 5845 5850 5859 5864 5869 5874 5874 5870 5875 5880 5881 5883 5885 5889 5889 5891 5892 5894 5894 5895 5896 5897 5899 5900 5901 5903 5905 5907 5909 5910 5911 5911 5912 5912 5912 5913 5913 5913 5913 5914 5914 5913 5913 5912 5912 5910
5836 5836 5836 5837 5844 5851 5854 5857 5861 5858 5864 5869 5874 5876 5877 5882 5884 5886 5888 5890 5892 5892 5892 5893 5893 5896 5898 5900 5900 5902 5905 5907 5908 5908 5909 5910 5910 5911 5912 5912 5912 5912 5912 5912 5911 5911 5910 5908 5908
5826 5827 5826 5830 5834 5842 5846 5848 5850 5852 5856 5864 5866 5870 5873 5871 5878 5882 5884 5886 5889 5890 5891 5891 5891 5893 5895 5897 5899 5901 5903 5904 5906 5906 5907 5908 5909 5910 5911 5911 5912 5911 5911 5911 5909 5909 5908 5907 5907
5815 5815 5818 5820 5825 5830 5837 5841 5838 5844 5846 5855 5857 5862 5868 5864 5871 5876 5880 5882 5885 5888 5888 5888 5888 5891 5893 5895 5897 5898 5900 5902 5902 5903 5905 5906 5908 5908 5910 5910 5910 5910 5909 5909 5908 5907 5906 5906 5905
5800 5800 5802 5810 5816 5820 5826 5830 5828 5831 5838 5846 5845 5853 5858 5851 5865 5869 5874 5878 5881 5885 5886 5887 5888 5890 5891 5892 5895 5896 5897 5898 5900 5901 5903 5905 5906 5907 5908 5908 5908 5908 5907 5907 5906 5905 5904 5903 5903
5781 5781 5786 5798 5805 5809 5813 5815 5817 5818 5827 5832 5838 5839 5847 5841 5859 5863 5868 5873 5877 5880 5883 5884 5886 5888 5889 5891 5892 5894 5894 5896 5898 5900 5902 5903 5903 5905 5906 5906 5906 5907 5905 5904 5904 5902 5901 5900 5900
5757 5761 5773 5785 5787 5789 5795 5799 5805 5804 5817 5821 5827 5830 5841 5831 5851 5857 5862 5867 5871 5875 5877 5880 5880 5883 5887 5888 5891 5891 5893 5895 5897 5899 5900 5901 5902 5902 5903 5904 5904 5903 5902 5902 5901 5899 5897 5896 5896
5736 5741 5754 5758 5761 5767 5773 5780 5786 5789 5802 5810 5816 5823 5833 5824 5840 5849 5854 5859 5865 5868 5871 5875 5877 5878 5882 5884 5886 5888 5891 5893 5895 5896 5898 5899 5899 5899 5901 5900 5901 5900 5899 5899 5897 5895 5894 5894 5893
5718 5723 5729 5735 5738 5743 5752 5759 5768 5774 5789 5792 5800 5811 5820 5816 5829 5838 5845 5851 5857 5862 5865 5869 5872 5874 5876 5879 5882 5885 5887 5890 5891 5894 5895 5896 5896 5897 5897 5897 5897 5896 5897 5895 5894 5891 5889 5890 5889
5709 5710 5711 5713 5717 5725 5730 5739 5749 5760 5769 5777 5786 5799 5805 5805 5817 5824 5835 5841 5849 5854 5859 5864 5866 5868 5872 5874 5876 5880 5883 5885 5888 5890 5891 5892 5893 5894 5893 5894 5894 5893 5892 5891 5889 5885 5886 5885 5884
5700 5700 5701 5699 5700 5708 5710 5717 5725 5752 5756 5767 5774 5786 5792 5798 5811 5817 5825 5833 5839 5845 5852 5857 5861 5861 5866 5869 5873 5875 5878 5881 5884 5886 5888 5889 5890 5889 5890 5891 5891 5889 5888 5886 5883 5882 5880 5880 5878
5692 5691 5690 5689 5687 5690 5692 5691 5712 5743 5740 5747 5759 5772 5780 5788 5798 5804 5814 5822 5829 5836 5845 5849 5855 5859 5863 5866 5869 5871 5874 5876 5878 5881 5883 5885 5886 5885 5887 5887 5885 5885 5884 5880 5879 5878 5877 5874 5871
5683 5682 5680 5679 5674 5677 5673 5679 5701 5723 5724 5731 5744 5754 5764 5774 5785 5794 5802 5812 5818 5827 5837 5842 5847 5852 5857 5861 5863 5865 5868 5871 5874 5876 5878 5881 5882 5882 5883 5882 5881 5880 5877 5876 5874 5872 5869 5867 5865
5675 5675 5674 5674 5673 5672 5669 5672 5685 5702 5705 5715 5729 5742 5752 5763 5773 5782 5793 5801 5808 5821 5829 5835 5840 5846 5851 5855 5858 5861 5863 5866 5869 5872 5874 5876 5877 5878 5877 5876 5875 5874 5871 5870 5868 5865 5863 5861 5858
5672 5674 5673 5669 5671 5666 5665 5662 5667 5679 5687 5699 5711 5726 5737 5751 5762 5773 5783 5791 5801 5813 5824 5829 5833 5840 5844 5849 5853 5856 5859 5862 5865 5868 5870 5871 5873 5872 5872 5870 5869 5867 5866 5863 5861 5858 5857 5852 5850
5661 5660 5661 5662 5661 5657 5656 5656 5658 5664 5673 5683 5696 5710 5725 5737 5751 5761 5771 5781 5791 5804 5816 5822 5828 5833 5838 5843 5847 5852 5855 5858 5861 5864 5866 5867 5867 5867 5865 5865 5863 5861 5858 5857 5854 5850 5847 5845 5842
5652 5650 5650 5652 5654 5651 5650 5648 5649 5651 5654 5667 5679 5692 5710 5724 5738 5750 5760 5771 5780 5798 5808 5812 5820 5827 5833 5836 5841 5846 5850 5854 5857 5860 5859 5861 5861 5861 5859 5858 5855 5853 5852 5849 5847 5841 5839 5837 5832
5643 5642 5642 5643 5644 5642 5639 5637 5642 5643 5646 5656 5664 5681 5700 5712 5726 5741 5753 5763 5773 5788 5798 5803 5810 5819 5824 5831 5837 5841 5845 5848 5852 5852 5854 5855 5856 5854 5853 5852 5850 5848 5846 5844 5839 5837 5833 5828 5822
5634 5635 5633 5632 5632 5630 5635 5625 5630 5634 5635 5642 5656 5673 5689 5702 5716 5732 5744 5754 5767 5781 5788 5796 5804 5810 5818 5826 5832 5836 5840 5842 5845 5845 5847 5848 5849 5850 5848 5846 5845 5843 5842 5839 5832 5828 5823 5820 5815
5628 5627 5625 5625 5623 5623 5621 5618 5619 5627 5629 5633 5649 5663 5680 5694 5709 5723 5736 5746 5761 5772 5781 5786 5795 5804 5812 5819 5825 5830 5833 5835 5838 5840 5842 5844 5844 5844 5842 5843 5840 5838 5835 5828 5822 5816 5814 5816 5817
5621 5618 5617 5616 5615 5610 5613 5611 5610 5618 5622 5630 5636 5654 5672 5686 5700 5716 5729 5741 5753 5763 5770 5777 5789 5798 5804 5811 5818 5823 5827 5831 5833 5836 5839 5840 5839 5839 5841 5840 5836 5833 5830 5825 5819 5815 5817 5816 5817
5612 5610 5607 5606 5603 5601 5606 5602 5605 5609 5616 5623 5629 5644 5661 5677 5690 5706 5719 5734 5744 5751 5760 5770 5783 5792 5799 5806 5811 5817 5821 5825 5829 5831 5834 5836 5836 5836 5838 5835 5834 5830 5827 5824 5820 5817 5819 5817 5817
5603 5602 5599 5595 5595 5595 5599 5595 5599 5603 5605 5614 5618 5634 5653 5669 5684 5697 5714 5732 5739 5743 5752 5760 5772 5781 5792 5798 5806 5812 5816 5820 5824 5827 5829 5831 5832 5832 5831 5830 5828 5825 5822 5821 5818 5818 5817 5816 5814
5593 5590 5593 5586 5586 5585 5589 5591 5592 5598 5601 5604 5606 5617 5639 5659 5669 5689 5715 5715 5721 5736 5747 5759 5765 5772 5784 5792 5799 5805 5811 5815 5819 5821 5824 5826 5828 5828 5827 5826 5824 5822 5820 5819 5818 5817 5815 5813 5812
5582 5583 5582 5580 5577 5577 5579 5582 5586 5592 5596 5597 5599 5610 5629 5645 5663 5689 5697 5700 5681 5720 5741 5754 5761 5767 5778 5786 5793 5798 5803 5810 5813 5816 5819 5821 5823 5824 5824 5823 5822 5821 5820 5819 5816 5814 5810 5809 5807
5576 5575 5573 5570 5569 5569 5571 5574 5569 5575 5580 5590 5596 5609 5623 5638 5661 5688 5688 5691 5690 5714 5733 5749 5754 5758 5770 5782 5789 5791 5798 5804 5808 5812 5814 5817 5820 5820 5820 5820 5820 5819 5817 5815 5813 5808 5806 5804 5801
5568 5566 5564 5562 5563 5561 5560 5559 5559 5566 5572 5576 5587 5600 5618 5640 5663 5672 5683 5702 5694 5678 5723 5744 5746 5751 5769 5779 5783 5787 5794 5799 5804 5807 5811 5814 5815 5815 5816 5816 5814 5813 5812 5809 5806 5804 5802 5798 5796